Weather History for KFDK - March, 2013

Change the Weather History Date:

Wednesday, March 20, 2013

  Actual Average (KHGR) Record (KHGR)
Temperature  
Mean Temperature 40 °F 43 °F  
Max Temperature 48 °F 52 °F 72 °F (2012)
Min Temperature 32 °F 33 °F 28 °F (1999)
Degree Days  
Heating Degree Days 25 22  
Month to date heating degree days 509  
Since 1 July heating degree days 4412  
Cooling Degree Days 0 0  
Month to date cooling degree days 0  
Year to date cooling degree days 0  
Moisture  
Dew Point 20 °F    
Average Humidity 51    
Maximum Humidity 75    
Minimum Humidity 30    
Precipitation  
Precipitation 0.00 in 0.12 in 1.31 in (2003)
Month to date precipitation 1.97  
Year to date precipitation 7.20  
Sea Level Pressure  
Sea Level Pressure 29.94 in    
Wind  
Wind Speed 13 mph (WNW)    
Max Wind Speed 24 mph    
Max Gust Speed 36 mph    
Visibility 10 miles    
Events      
T = Trace of Precipitation, MM = Missing Value Source: NWS Daily Summary

Daily Weather History Graph

Daily Weather History Graph

Search for Another Location

Airport or City:

Trip Planner

Search our weather history database for the weather conditions in past years. The results will help you decide how hot, cold, wet, or windy it might be!

Date:

Astronomy

Mar. 20, 2013 Rise Set
Actual Time 7:12 AM EDT 7:21 PM EDT
Civil Twilight 6:45 AM EDT 7:48 PM EDT
Nautical Twilight 6:14 AM EDT 8:19 PM EDT
Astronomical Twilight 5:42 AM EDT 8:51 PM EDT
Moon 12:56 PM EDT (3/20) 2:49 AM EDT (3/20)
Length of Visible Light 13h 02m
Length of Day
12h 09m
First Quarter, 59% of the Moon is Illuminated
Mar 20
First Quarter
Mar 27
Full
Apr 3
Last Quarter
Apr 10
New
Apr 18
First Quarter

Hourly Weather History & Observations

Time (EDT) Temp. Windchill Dew Point Humidity Pressure Visibility Wind Dir Wind Speed Gust Speed Precip Events Conditions
12:00 AM 39.2 °F 29.3 °F 19.4 °F 45% 29.94 in 10.0 mi West 20.7 mph 31.1 mph N/A   Clear
12:20 AM 39.2 °F 28.5 °F 17.6 °F 42% 29.95 in 10.0 mi West 24.2 mph 35.7 mph N/A   Clear
12:35 AM 39.2 °F 29.8 °F 17.6 °F 42% 29.95 in 10.0 mi WNW 18.4 mph 27.6 mph N/A   Clear
1:00 AM 37.4 °F 29.3 °F 21.2 °F 52% 29.96 in 10.0 mi WNW 12.7 mph 18.4 mph N/A   Clear
1:20 AM 35.6 °F 27.5 °F 21.2 °F 56% 29.97 in 10.0 mi West 11.5 mph 16.1 mph N/A   Clear
1:40 AM 35.6 °F 26.6 °F 21.2 °F 56% 29.97 in 10.0 mi West 13.8 mph 17.3 mph N/A   Clear
2:00 AM 35.6 °F 26.6 °F 19.4 °F 52% 29.98 in 10.0 mi West 13.8 mph 18.4 mph N/A   Clear
2:20 AM 35.6 °F 24.5 °F 17.6 °F 48% 29.99 in 10.0 mi West 20.7 mph 26.5 mph N/A   Clear
2:40 AM 35.6 °F 29.2 °F 17.6 °F 48% 29.99 in 10.0 mi WNW 8.1 mph 20.7 mph N/A   Clear
3:00 AM 35.6 °F 26.6 °F 17.6 °F 48% 29.99 in 10.0 mi West 13.8 mph 17.3 mph N/A   Clear
3:20 AM 33.8 °F 24.8 °F 17.6 °F 52% 29.99 in 10.0 mi WNW 12.7 mph - N/A   Clear
3:40 AM 33.8 °F 25.8 °F 17.6 °F 52% 29.98 in 10.0 mi West 10.4 mph 17.3 mph N/A   Clear
4:00 AM 33.8 °F 27.0 °F 17.6 °F 52% 29.98 in 10.0 mi West 8.1 mph - N/A   Clear
4:20 AM 32.0 °F 25.6 °F 17.6 °F 55% 29.98 in 10.0 mi West 6.9 mph - N/A   Clear
4:40 AM 32.0 °F 24.8 °F 19.4 °F 60% 29.98 in 10.0 mi West 8.1 mph - N/A   Clear
5:00 AM 32.0 °F 23.6 °F 17.6 °F 55% 29.99 in 10.0 mi West 10.4 mph - N/A   Clear
5:20 AM 32.0 °F 23.6 °F 17.6 °F 55% 29.99 in 10.0 mi West 10.4 mph 18.4 mph N/A   Clear
5:40 AM 32.0 °F 23.0 °F 17.6 °F 55% 29.98 in 10.0 mi West 11.5 mph - N/A   Clear
6:00 AM 32.0 °F 23.6 °F 17.6 °F 55% 29.98 in 10.0 mi West 10.4 mph - N/A   Clear
6:20 AM 32.0 °F 23.0 °F 17.6 °F 55% 29.99 in 10.0 mi West 11.5 mph - N/A   Clear
6:40 AM 32.0 °F 25.6 °F 17.6 °F 55% 29.99 in 10.0 mi West 6.9 mph - N/A   Clear
6:45 AM 32.0 °F 24.8 °F 17.6 °F 55% 29.99 in 10.0 mi West 8.1 mph - N/A   Clear
6:55 AM 33.8 °F 27.7 °F 15.8 °F 48% 29.99 in 10.0 mi West 6.9 mph - N/A   Clear
7:50 AM 32.0 °F - 17.6 °F 55% 30.00 in 10.0 mi Calm Calm - N/A   Clear
8:49 AM 37.4 °F 33.8 °F 19.4 °F 48% 30.01 in 10.0 mi WSW 4.6 mph - N/A   Clear
9:45 AM 39.2 °F 32.5 °F 17.6 °F 42% 30.02 in 10.0 mi West 10.4 mph - N/A   Clear
10:50 AM 42.8 °F 36.6 °F 17.6 °F 36% 30.00 in 10.0 mi West 11.5 mph 20.7 mph N/A   Clear
11:45 AM 44.6 °F 38.4 °F 17.6 °F 34% 29.99 in 10.0 mi West 12.7 mph 24.2 mph N/A   Clear
12:48 PM 46.4 °F 40.7 °F 17.6 °F 32% 29.96 in 10.0 mi West 12.7 mph 25.3 mph N/A   Scattered Clouds
1:54 PM 46.4 °F 40.7 °F 17.6 °F 32% 29.92 in 10.0 mi WNW 12.7 mph 20.7 mph N/A   Scattered Clouds
2:47 PM 48.2 °F - 19.4 °F 32% 29.88 in 10.0 mi West 15.0 mph 24.2 mph N/A   Mostly Cloudy
3:55 PM 48.2 °F - 17.6 °F 30% 29.83 in 10.0 mi WSW 13.8 mph 25.3 mph N/A   Mostly Cloudy
6:52 PM 48.2 °F - 17.6 °F 30% 29.79 in 10.0 mi West 12.7 mph 17.3 mph N/A   Mostly Cloudy
7:45 PM 46.4 °F 41.9 °F 17.6 °F 32% 29.80 in 10.0 mi West 9.2 mph - N/A   Mostly Cloudy
9:00 PM 42.8 °F 38.6 °F 21.2 °F 42% 29.82 in 10.0 mi NW 6.9 mph - N/A   Overcast
9:20 PM 41.0 °F 33.9 °F 23.0 °F 49% 29.84 in 10.0 mi NNW 12.7 mph - N/A   Overcast
9:40 PM 39.2 °F 33.6 °F 24.8 °F 56% 29.84 in 10.0 mi NNW 8.1 mph - N/A   Scattered Clouds
10:05 PM 37.4 °F 30.8 °F 26.6 °F 65% 29.84 in 10.0 mi NNW 9.2 mph 16.1 mph N/A   Scattered Clouds
10:25 PM 37.4 °F 30.3 °F 28.4 °F 70% 29.84 in 10.0 mi NNW 10.4 mph - N/A   Overcast
10:45 PM 37.4 °F 32.8 °F 28.4 °F 70% 29.84 in 10.0 mi NNW 5.8 mph - N/A   Mostly Cloudy
11:05 PM 35.6 °F 31.7 °F 28.4 °F 75% 29.85 in 10.0 mi NNW 4.6 mph - N/A   Scattered Clouds
11:25 PM 35.6 °F 31.7 °F 28.4 °F 75% 29.85 in 10.0 mi NE 4.6 mph - N/A   Overcast
11:45 PM 35.6 °F 29.9 °F 28.4 °F 75% 29.85 in 10.0 mi North 6.9 mph - N/A   Scattered Clouds